Regional Weather Roundup
Issued by NWS Newport/Morehead, NC

Current Version | Previous Version | Graphics & Text | Print | Product List | Glossary Off
Versions: 1 2 3 4 5 6 7 8 9 10 11 12 13 14 15 16 17 18 19 20 21 22 23 24 25 26 27 28 29 30 31 32 33 34 35 36 37 38 39 40 41 42 43 44 45 46 47 48 49 50

000
ASUS42 KMHX 161113
RWRMHX
WEATHER ROUNDUP FOR EASTERN NORTH CAROLINA
NATIONAL WEATHER SERVICE NEWPORT/MOREHEAD CITY NC
700 AM EDT MON OCT 16 2017

NOTE: "FAIR" INDICATES FEW OR NO CLOUDS BELOW 12,000 FEET
WITH NO SIGNIFICANT WEATHER AND/OR OBSTRUCTIONS TO VISIBILITY

NCZ015>017-031-032-045>047-102-103-161200-
NORTH COAST

CITY           SKY/WX    TMP DP  RH WIND       PRES   REMARKS
EDENTON        PTCLDY    69  67  93 CALM      29.98R
ELIZABETH CITY CLEAR     68  68 100 S8        29.96S
KITTY HAWK     CLOUDY   N/A N/A N/A CALM      29.96S
MANTEO         CLOUDY   N/A N/A N/A W9        29.98S

$$

NCZ045>047-081-094-103-104-161200-
CENTRAL COAST

CITY           SKY/WX    TMP DP  RH WIND       PRES   REMARKS
FRISCO         PTCLDY    76  75  97 W7        29.98R

$$

NCZ095-097-098-100-101-161200-
SOUTHERN COAST

CITY           SKY/WX    TMP DP  RH WIND       PRES   REMARKS
BEAUFORT       PTCLDY    73  72  96 W6        29.99R
CEDAR ISLAND   NOT AVBL
JACKSONVILLE   FOG       67  67 100 SW3       29.99R VSB 1/2
PINEY ISLAND     N/A    N/A N/A N/A W6        29.99R
WILMINGTON     CLEAR     69  68  96 CALM      30.00R


$$

NCZ011>013-027>030-043-044-078>080-089-090>093-098-161200-
COASTAL PLAIN

CITY           SKY/WX    TMP DP  RH WIND       PRES   REMARKS
AHOSKIE        MOCLDY    67  67  99 CALM      29.96R
CLINTON        CLOUDY    65  65 100 CALM      29.99S VSB 1/2
ELIZABETHTOWN  NOT AVBL
GOLDSBORO      CLEAR     66  64  94 SW3       29.97S
GREENVILLE     CLEAR     64  64 100 CALM      29.99S FOG
HAVELOCK       PTCLDY    69  69 100 SW3       30.00R FOG
KENANSVILLE    CLOUDY    63  63 100 CALM      29.99R FOG
KINSTON        FOG       64  64 100 CALM      29.99R VSB 1
NEW BERN       CLOUDY    68  68 100 W3        30.00R FOG
RICHLANDS      CLOUDY    68  67  96 SW5       30.00R FOG
ROCKY MOUNT    PTCLDY    67  67 100 SW6       29.97S
WASHINGTON     PTCLDY    66  65  97 SW3       29.99R
WHITEVILLE     CLEAR     68  67  97 CALM      29.99S

$$

AMZ130-135-150-152-154-156-158-170-250-252-270-ANZ085-086-088-633-658-670-161200-
MARINE OBSERVATIONS

STATION/POSITION TIME  TEMP    WIND        PRES    WAVE   SWELL
                       AIR SEA DIR/SP/G            HT/PER HT/PER
                 (UTC) (F)     (DEG/KT/KT) (MB)    (FT/S) (FT/S)
CHESAPEAKE LIGHT NOT AVBL
64 E VA BEACH    1050   71 70  230/ 12/ 14 1014.6    4/ 8   2/ 8
DUCK             1036   72 72  220/ 11/ 14 1014.1
2 E DUCK         1100      72                N/A     2/ 8
OREGON INLET     1036   72 75  240/ 10/ 12 1014.9
13E OREGON INLT  1048      73                N/A     3/ 9   2/ 9
HATTERAS CG      1036   76 77  270/ 10/ 12 1015.1
DIAMOND BUOY     1050   78 77  240/  8/ 10 1014.9    3/ 4   3/ 9
CAPE LOOKOUT     1100   76     270/  6/  7 1014.8
BEAUFORT LAB     1036   74 72  300/  5/  7 1014.9
30 SE NEW RVR IN 1008   78     250/  6/  8 1015.0
30 SE NEW RVR IN NOT AVBL
27 SE WRIGHTSVLE 1008   77 78  250/ 10/ 14 1015.2
5 SE WRIGHTSVLE  1008   73 77  310/ 12/ 16 1015.2
225 S CAPE HAT   1050   78 80  180/  4/  6 1016.0    4/ 8   3/ 8
41 SE CHARLESTON 1100   80 81  250/ 10/ 12 1014.9

$$




USA.gov is the U.S. government's official web portal to all federal, state and local government web resources and services.